Location: Sternwarte auf dem Internationalen Platz Vogelsang IP
(50.5721°N, 6.4398°E)
Time: 07:38:04
(UTC+01:00)

A-11 Canister half - All Passes

Search period start: 11 December 2025 00:00
Search period end: 21 December 2025 00:00
Orbit: 1511 x 1688 km, 47.2° (Epoch: 10 December)

Date Brightness Start Highest point End Pass type
(mag) Time Alt. Az. Time Alt. Az. Time Alt. Az.
11 Dec - 00:48:43 10° WSW 00:51:29 11° WSW 00:54:16 10° SW night (unlit)
11 Dec - 14:05:34 10° SSE 14:10:14 15° SE 14:14:57 10° E daylight
11 Dec - 16:04:26 10° SSW 16:13:01 43° SSE 16:21:55 10° E daylight
11 Dec - 18:07:44 10° WSW 18:17:07 71° S 18:26:53 10° E visible
11 Dec - 20:12:14 10° W 20:21:44 68° SSW 20:31:37 10° ESE visible
11 Dec - 22:17:02 10° W 22:25:47 39° SW 22:34:48 10° SSE visible
12 Dec - 00:24:54 10° W 00:28:35 13° WSW 00:32:17 10° SW night (unlit)
12 Dec - 13:43:17 10° SSE 13:47:21 14° SE 13:51:27 10° E daylight
12 Dec - 15:41:34 10° SSW 15:50:03 41° SE 15:58:49 10° E daylight
12 Dec - 17:44:44 10° WSW 17:54:05 70° SSE 18:03:48 10° E visible
12 Dec - 19:49:12 10° W 19:58:42 69° SSW 20:08:33 10° ESE visible
12 Dec - 21:53:58 10° W 22:02:48 41° SW 22:11:54 10° SSE visible
13 Dec - 00:01:19 10° W 00:05:40 14° SW 00:10:04 10° SSW visible
13 Dec - 13:21:07 10° SE 13:24:28 12° ESE 13:27:50 10° ESE daylight
13 Dec - 15:18:43 10° SSW 15:27:05 40° SE 15:35:43 10° E daylight
13 Dec - 17:21:45 10° WSW 17:31:03 69° SSE 17:40:44 10° E visible
13 Dec - 19:26:12 10° W 19:35:40 70° S 19:45:30 10° ESE visible
13 Dec - 21:30:55 10° W 21:39:49 42° SW 21:48:58 10° SSE visible
13 Dec - 23:37:51 10° W 23:42:45 15° SW 23:47:42 10° SSW visible
14 Dec - 12:59:14 10° SE 13:01:35 11° ESE 13:03:57 10° ESE daylight
14 Dec - 14:55:53 10° SSW 15:04:08 38° SE 15:12:37 10° E daylight
14 Dec - 16:58:46 10° WSW 17:08:02 68° SSE 17:17:39 10° E visible
14 Dec - 19:03:10 10° W 19:12:37 71° S 19:22:27 10° ESE visible
14 Dec - 21:07:52 10° W 21:16:49 44° SSW 21:26:03 10° SE visible
14 Dec - 23:14:28 10° W 23:19:50 16° SW 23:25:16 10° SSW visible
15 Dec - 14:33:03 10° SSW 14:41:11 36° SE 14:49:31 10° E daylight
15 Dec - 16:35:47 10° WSW 16:45:00 66° SSE 16:54:35 10° E daylight
15 Dec - 18:40:09 10° W 18:49:35 72° S 18:59:23 10° ESE visible
15 Dec - 20:44:50 10° W 20:53:49 46° SSW 21:03:06 10° SE visible
15 Dec - 22:51:09 10° W 22:56:54 17° SW 23:02:45 10° SSW visible
16 Dec - 14:10:15 10° SSW 14:18:14 34° SE 14:26:25 10° E daylight
16 Dec - 16:12:49 10° WSW 16:21:59 65° SSE 16:31:30 10° E daylight
16 Dec - 18:17:08 10° W 18:26:33 72° S 18:36:19 10° ESE visible
16 Dec - 20:21:47 10° W 20:30:49 48° SSW 20:40:09 10° SE visible
16 Dec - 22:27:53 10° W 22:33:59 19° SW 22:40:11 10° SSW visible
17 Dec - 13:47:28 10° SSW 13:55:17 32° SE 14:03:18 10° E daylight
17 Dec - 15:49:51 10° WSW 15:58:58 64° SSE 16:08:27 10° E daylight
17 Dec - 17:54:07 10° W 18:03:30 73° S 18:13:16 10° ESE visible
17 Dec - 19:58:45 10° W 20:07:49 49° SSW 20:17:11 10° SE visible
17 Dec - 22:04:39 10° W 22:11:03 20° SW 22:17:35 10° S visible
18 Dec - 13:24:41 10° SSW 13:32:21 31° SE 13:40:10 10° E daylight
18 Dec - 15:26:53 10° WSW 15:35:58 62° SSE 15:45:22 10° E daylight
18 Dec - 17:31:07 10° W 17:40:28 73° S 17:50:11 10° ESE visible
18 Dec - 19:35:44 10° W 19:44:49 51° SSW 19:54:13 10° SE visible
18 Dec - 21:41:26 10° W 21:48:06 21° SW 21:54:56 10° S visible
19 Dec - 13:01:55 10° SSW 13:09:26 29° SE 13:17:03 10° E daylight
19 Dec - 15:03:55 10° SW 15:12:58 61° SSE 15:22:18 10° E daylight
19 Dec - 17:08:06 10° W 17:17:26 74° S 17:27:08 10° ESE visible
19 Dec - 19:12:42 10° W 19:21:48 53° SSW 19:31:14 10° SE visible
19 Dec - 21:18:15 10° W 21:25:10 23° SW 21:32:15 10° S visible
20 Dec - 12:39:11 10° S 12:46:30 27° SE 12:53:55 10° E daylight
20 Dec - 14:40:58 10° SW 14:49:57 59° SSE 14:59:14 10° E daylight
20 Dec - 16:45:05 10° W 16:54:24 74° S 17:04:03 10° E daylight
20 Dec - 18:49:41 10° W 18:58:48 54° SSW 19:08:15 10° SE visible
20 Dec - 20:55:06 10° W 21:02:14 24° SW 21:09:33 10° S visible
